SCP
0 0 0 0 0 0 0 0 0 0 0 0 0 0 0 0 0 0 0 0 0 0 0 0 0 0 0 0 0 0 0 0 0 0 0 0 0 0 0 0 0 0 0 0
0 0 0 0 0 0 0 0 0 0 0 0 0 0 0 0 0 0 0 0 0 0 0 0 0 0 0 0 0 0 0 0 0 0 0 0 0 0 0 0 0 0 0 0
0 0 0 0 0 0 0 0 0 0 0 0 0 0 0 0 0 0 0 0 0 0 0 0 0 0 0 0 0 0 0 0 0 0 0 0 0 0 0 0 0 0 0 0
0 0 0 0 0 0 0 0 0 0 0 0 0 0 0 0 0 0 0 0 0 0 0 0 0 0 0 0 0 0 0 0 0 0 0 0 0 0 0 0 0 0 0 0
0 0 0 0 0 0 0 0 0 0 0 0 0 0 -0 0 0 0 0 0 0 0 0 0 0 0 0 0 0 0 0 0 0 0 0 0 0 0 0 0 0 0 0 0
0 0 0 0 0 0 0 0 0 0 0 0 0 0 0 -0 0 0 0 0 0 0 0 0 0 0 0 0 0 0 0 0 0 0 0 0 0 0 0 0 0 0 0 0
0 0 0 0 0 0 0 0 0 0 0 0 0 0 0 0 0 0 0 0 0 0 0 0 0 0 0 0 0 0 0 0 0 0 0 0 0 0 0 0 0 0 0 0
0 0 0 0 0 0 0 0 0 0 0 0 0 0 0 0 0 0 0 0 0 0 0 0 0 0 0 0 0 0 0 0 0 0 0 0 0 0 0 0 0 0 0 0
0 0 0 0 0 0 0 0 0 0 0 0 0 0 0 0 0 0 0 0 0 0 0 0 0 0 0 0 0 0 0 0 0 0 0 0 0 0 0 0 0 0 0 0
0 0 0 0 0 0 0 0 0 0 0 0 0 0 0 0 0 0 0 0 0 0 0 0 0 0 0 0 0 0 0 0 0 0 0 0 0 0 0 0 0 0 0 0
0 0 0 0 0 0 0 0 0 0 0 0 0 0 0 0 0 0 0 0 0 0 0 0 0 0 0 0 0 0 0 0 0 0 0 0 0 0 0 0 0 0 0 0
0 0 0 0 0 0 0 0 0 0 0 0 0 0 0 0 0 0 0 0 0 0 0 0 0 0 0 0 0 0 0 0 0 0 0 0 0 0 0 0 0 0 0 0
0 0 0 0 0 0 0 0 0 0 0 0 0 0 0 0 0 0 0 0 0 0 0 0 0 0 0 0 0 0 0 0 0 0 0 0 0 0 0 0 0 0 0 0
0 0 0 0 0 0 0 0 0 0 0 0 0 0 0 0 0 0 0 0 0 0 0 0 0 0 0 0 0 0 0 0 0 0 0 0 0 0 0 0 0 0 0 0
0 0 0 0 0 0 0 0 0 0 0 0 0 0 0 0 0 0 0 0 0 0 0 0 0 0 0 0 0 0 0 0 0 0 0 0 0 0 0 0 0 0 0 0
0 0 0 0 0 0 0 0 0 0 0 0 0 0 0 0 0 0 0 -0 0 -0 -0 -0 0 0 0 0 0 0 0 0 0 0 0 0 0 0 0 0 0 0 0 0
0 0 0 0 0 0 0 0 0 0 0 0 0 0 0 0 0 0 0 0 0 0 0 0 0 0 0 0 0 0 0 0 0 0 0 0 0 0 0 0 -0 0 0 0
0 0 0 0 0 0 0 0 0 0 0 0 0 0 0 0 0 0 0 0 0 0 0 0 0 0 0 0 0 0 0 0 0 0 0 -0 -0 -0 -0 -0 -0 -0 0 0
0 0 0 0 0 0 0 0 0 0 0 0 0 0 0 0 0 0 0 0 0 0 0 0 0 0 0 0 0 0 0 0 0 0 0 0 0 0 0 0 0 -0 0 0
0 0 0 0 0 0 0 0 0 0 0 0 0 0 0 0 0 0 0 0 0 0 0 0 0 0 0 0 0 0 0 0 0 0 0 0 0 0 0 0 0 0 0 0
0 0 0 0 0 0 0 0 0 0 0 0 0 0 0 0 0 0 0 0 0 0 0 0 0 0 0 0 0 0 0 0 0 0 0 0 0 0 0 0 0 0 0 0
0 0 0 0 0 0 0 0 0 0 0 0 0 0 0 0 0 0 0 0 0 0 0 0 0 0 0 0 -0 -0 0 0 0 0 0 0 0 0 0 0 0 0 0 0
0 0 0 0 0 0 0 0 0 0 0 0 0 0 0 0 0 0 0 0 0 0 0 0 0 0 0 0 -0 -0 0 0 0 0 0 0 0 0 0 0 0 0 0 0
0 0 0 0 0 0 0 0 0 0 0 0 0 0 0 0 0 0 0 0 0 0 0 0 0 0 0 0 0 0 0 0 0 0 0 0 0 0 0 0 0 0 0 0
0 0 0 0 0 0 0 0 0 0 0 0 0 0 0 0 0 0 0 0 0 0 0 0 0 0 0 0 0 0 0 0 0 0 0 0 0 0 0 0 0 0 0 0
0 0 0 0 0 0 0 0 0 0 0 0 0 0 0 0 0 0 0 0 0 0 0 0 0 0 0 0 0 0 0 0 0 0 0 0 0 0 0 0 0 0 0 0
Wind_Speed_500mb
6 8 13 19 12 5 12 7 7 1 3 3 9 13 23 47 34 48 50 51 53 59 58 52 52 48 54 62 63 62 68 71 73 76 76 75 77 79 81 81 72 64 66 66
10 8 11 11 8 8 7 7 3 1 2 1 9 21 21 35 30 48 51 48 38 38 47 47 45 49 50 52 56 63 62 64 66 72 73 76 74 77 78 78 76 77 70 72
12 4 20 11 8 10 4 8 6 6 4 6 10 17 12 10 11 22 27 35 42 38 33 21 22 39 47 51 51 55 60 65 65 65 71 76 76 78 80 84 81 86 75 79
6 5 14 11 8 11 9 10 9 8 7 6 5 10 11 11 20 17 35 30 28 20 12 13 13 14 27 36 44 50 54 61 65 67 67 68 71 75 70 72 70 72 74 79
11 14 13 7 10 10 7 8 10 6 8 6 7 2 14 7 13 16 23 14 21 22 20 18 12 3 2 12 28 35 42 54 64 66 65 63 65 66 67 67 68 66 65 73
4 2 4 10 6 3 17 13 14 10 6 2 11 10 10 7 4 4 13 15 16 16 15 13 15 12 4 6 9 16 27 37 48 55 58 59 57 58 63 65 65 64 63 63
2 1 3 6 12 8 8 12 4 6 5 10 1 4 16 12 10 7 17 10 14 15 13 11 10 11 11 9 8 7 7 11 20 31 41 46 50 52 56 58 58 60 62 64
13 6 15 8 12 16 11 12 11 13 7 6 3 10 11 11 14 2 7 11 15 21 20 17 18 20 19 22 23 20 16 10 7 15 23 32 38 42 42 41 42 48 52 55
11 8 2 2 5 11 10 7 10 13 6 7 7 11 21 10 11 18 23 25 29 34 37 44 38 39 50 49 44 37 34 33 28 19 14 12 16 22 26 30 34 39 44 49
15 7 2 3 6 7 8 14 7 6 4 6 7 7 10 7 12 8 17 25 32 42 42 43 37 33 36 33 34 32 29 29 30 27 21 23 26 28 29 34 38 43 48 54
11 9 2 7 11 17 6 6 8 9 9 10 2 10 11 10 16 18 21 30 16 21 31 32 31 28 24 27 23 28 25 27 29 29 26 26 28 34 38 45 46 50 56 60
13 10 8 11 3 1 4 12 12 9 9 5 6 10 9 17 27 35 22 28 24 12 19 30 22 23 25 25 25 24 26 31 32 33 32 33 34 36 42 50 51 58 65 66
15 5 6 7 5 4 8 8 8 9 7 14 11 9 4 12 15 14 17 15 15 11 16 8 15 24 29 32 35 36 37 36 32 30 32 32 34 37 42 49 56 63 69 71
16 7 14 22 9 12 11 11 11 11 7 10 15 10 11 18 9 10 20 24 17 9 9 11 20 28 30 29 28 27 25 26 27 31 36 39 40 42 48 54 60 65 68 71
7 8 6 7 10 9 7 11 15 20 26 15 17 19 13 16 10 13 22 18 10 10 17 21 22 23 24 28 32 35 35 37 41 44 47 53 57 58 58 58 58 61 63 65
3 6 5 3 4 5 4 14 13 6 2 9 5 17 16 39 24 24 22 12 12 9 11 15 20 25 30 35 41 45 47 50 53 56 58 59 61 64 67 69 68 67 67 65
9 9 5 7 9 9 10 24 19 9 11 13 17 10 11 6 1 3 5 3 10 13 16 20 24 28 32 36 41 47 51 54 56 58 58 61 64 67 68 71 72 72 72 75
16 14 6 6 9 10 5 3 16 32 20 20 17 5 13 12 11 15 17 11 9 12 16 21 27 30 32 36 42 47 49 55 59 62 67 71 75 77 77 79 80 77 75 73
5 11 5 9 10 11 8 10 13 15 14 24 24 12 12 9 13 23 12 12 14 16 20 25 33 39 44 48 54 59 61 64 65 69 71 73 77 82 84 85 89 93 87 76
6 5 5 6 9 16 9 2 20 13 8 11 17 21 19 21 7 7 6 15 21 26 31 35 41 47 51 53 57 60 61 64 67 71 75 76 78 82 85 84 84 85 86 83
8 5 13 7 5 14 13 17 12 11 14 24 26 22 16 8 8 10 13 21 26 31 36 41 45 47 49 52 56 58 60 61 64 70 74 77 78 81 81 84 82 78 75 73
17 14 9 6 5 18 20 6 16 8 31 28 19 12 5 1 6 17 23 26 29 36 40 40 45 50 50 53 59 62 63 64 67 70 73 76 80 80 78 77 76 74 70 68
5 11 11 15 13 3 33 4 13 29 34 18 16 10 6 15 25 33 39 40 42 45 47 46 54 60 57 55 59 64 63 65 68 70 72 74 76 76 73 68 65 68 66 63
6 7 5 8 7 11 18 19 30 18 23 17 2 13 22 28 35 46 50 50 54 53 50 56 58 61 65 59 60 65 68 67 68 71 72 73 73 71 65 62 60 58 58 57
9 19 12 7 3 11 13 21 25 8 6 15 22 28 30 36 49 53 59 61 57 53 58 63 65 69 71 68 69 66 67 68 72 73 72 70 66 63 59 59 59 56 50 43
20 12 9 9 21 13 22 40 14 14 16 21 28 37 38 42 53 56 62 59 63 69 68 69 70 77 83 81 81 77 70 72 74 72 73 68 61 57 53 49 42 30 20 15
Wind_Direction_500mb
97 108 186 196 172 135 136 144 157 195 350 196 250 263 278 282 285 278 273 269 267 262 261 251 248 248 244 242 240 240 241 243 241 241 242 244 242 240 241 245 245 247 248 254
52 215 200 125 151 116 126 122 196 16 83 168 343 283 262 272 263 269 274 276 275 281 272 256 247 244 242 242 241 241 241 243 244 243 246 246 247 247 248 251 248 251 248 250
150 224 143 134 140 148 177 163 179 171 46 45 344 297 321 297 277 272 264 278 284 290 286 276 254 245 242 242 243 245 245 243 244 246 244 247 247 250 251 252 254 252 251 249
183 138 145 139 156 135 175 193 134 139 95 235 16 283 308 309 303 291 293 300 300 311 318 311 279 251 243 246 248 247 248 247 247 246 248 251 254 255 262 263 265 263 257 252
225 165 141 132 183 164 182 104 118 90 97 63 321 60 273 330 290 302 337 48 68 65 60 57 62 134 270 244 245 248 250 248 247 247 250 255 259 266 271 271 270 271 266 256
116 80 143 169 91 115 150 82 54 55 82 330 234 162 285 224 212 354 11 31 36 44 57 59 58 65 40 302 280 261 254 252 251 251 253 257 262 268 270 272 273 274 273 268
95 89 353 143 84 41 84 83 11 348 7 221 47 111 251 275 273 237 308 338 17 18 8 351 331 335 336 344 346 328 305 271 259 258 260 263 267 269 272 271 272 271 269 267
150 219 169 195 169 168 183 155 158 198 199 255 92 233 245 204 317 239 33 45 49 47 40 40 43 52 46 44 46 50 45 27 323 275 268 268 271 272 272 272 273 273 273 271
141 234 74 93 133 135 185 178 156 104 24 58 225 289 306 86 56 84 75 65 57 64 69 70 68 73 78 67 62 60 56 50 35 12 346 314 296 293 295 292 284 284 285 283
195 123 31 123 113 41 150 160 81 10 143 255 284 270 226 111 98 90 51 64 85 87 77 69 61 56 59 56 54 49 46 33 22 15 346 324 322 315 309 305 305 306 301 296
142 109 188 123 206 163 136 169 68 123 146 172 203 256 225 140 146 100 52 46 63 77 57 39 36 42 40 34 27 21 17 7 359 345 333 320 305 297 294 300 302 308 304 300
189 126 157 196 308 259 153 175 150 149 211 238 152 265 21 135 116 95 73 58 36 66 27 6 26 14 2 2 359 354 343 336 332 325 316 315 307 297 291 297 295 298 298 295
179 193 84 21 13 358 197 194 141 110 85 202 143 255 336 120 124 80 76 36 27 357 324 6 347 350 345 339 334 334 333 333 329 321 321 318 309 299 292 288 287 287 290 292
137 121 181 206 179 143 184 185 174 156 167 195 218 149 208 233 271 338 24 14 16 61 12 351 337 337 338 338 338 337 338 328 324 326 328 323 317 308 303 300 296 291 289 289
105 131 117 78 113 111 149 167 175 196 218 187 232 197 219 224 275 321 356 19 78 20 346 342 337 332 330 329 330 330 332 333 331 330 330 326 323 320 318 312 307 304 300 294
21 110 96 89 96 63 193 202 194 207 190 281 180 261 217 264 290 330 354 75 73 48 3 346 338 334 332 331 327 326 324 323 323 323 323 321 319 319 322 321 318 314 310 307
104 123 117 185 137 83 285 225 204 179 186 155 226 217 164 167 227 164 169 88 47 24 10 359 355 349 342 334 326 320 321 322 322 324 324 324 321 320 319 318 318 316 310 306
148 135 138 137 129 208 232 350 220 218 226 212 262 183 148 161 156 138 121 99 44 11 0 356 346 339 335 330 323 320 321 320 320 321 320 320 319 319 320 319 318 316 313 308
149 136 135 160 197 318 290 190 155 167 249 217 236 131 150 170 165 167 101 40 14 352 339 330 330 327 323 321 317 315 315 313 313 312 311 310 310 310 311 312 312 314 313 311
71 87 126 146 179 198 237 347 146 99 276 175 161 148 145 148 156 243 187 336 330 326 323 317 314 314 314 314 311 312 314 314 313 308 305 304 302 299 299 299 300 304 307 307
143 142 203 182 192 278 216 198 147 103 240 152 149 148 148 157 168 149 300 307 312 319 318 313 312 313 314 312 308 310 312 315 314 315 314 311 306 303 301 298 298 297 299 299
177 165 190 133 118 258 168 134 174 183 138 134 139 138 147 213 268 304 315 314 317 317 315 315 315 318 320 318 314 313 313 311 309 309 311 311 308 304 301 300 300 300 300 298
208 180 179 179 204 159 185 201 156 155 145 146 148 121 353 313 309 313 315 313 310 312 311 306 307 309 311 312 312 312 313 309 307 307 307 305 303 302 300 298 298 298 298 296
267 170 162 86 266 176 161 154 137 121 118 124 329 319 314 308 305 303 303 302 305 306 302 305 309 311 311 311 308 311 313 312 308 306 304 304 303 302 300 297 298 295 292 288
188 146 164 260 319 132 172 155 144 138 273 299 296 307 304 301 297 299 299 299 300 297 301 304 307 309 308 308 307 311 311 310 310 305 303 303 303 300 298 298 298 294 288 280
181 170 172 216 168 144 174 165 230 266 262 283 286 291 291 290 291 293 292 295 298 298 297 297 300 303 303 302 302 305 307 306 307 306 302 301 301 297 295 293 289 279 272 261
Wind_Speed_850mb
6 8 13 19 12 5 12 7 7 1 3 3 9 13 23 47 34 48 50 51 53 59 58 52 52 48 54 62 63 62 68 71 73 76 76 75 77 79 81 81 72 64 66 66
10 8 11 11 8 8 7 7 3 1 2 1 9 21 21 35 30 48 51 48 38 38 47 47 45 49 50 52 56 63 62 64 66 72 73 76 74 77 78 78 76 77 70 72
12 4 20 11 8 10 4 8 6 6 4 6 10 17 12 10 11 22 27 35 42 38 33 21 22 39 47 51 51 55 60 65 65 65 71 76 76 78 80 84 81 86 75 79
6 5 14 11 8 11 9 10 9 8 7 6 5 10 11 11 20 17 35 30 28 20 12 13 13 14 27 36 44 50 54 61 65 67 67 68 71 75 70 72 70 72 74 79
11 14 13 7 10 10 7 8 10 6 8 6 7 2 14 7 13 16 23 14 21 22 20 18 12 3 2 12 28 35 42 54 64 66 65 63 65 66 67 67 68 66 65 73
4 2 4 10 6 3 17 13 14 10 6 2 11 10 10 7 4 4 13 15 16 16 15 13 15 12 4 6 9 16 27 37 48 55 58 59 57 58 63 65 65 64 63 63
2 1 3 6 12 8 8 12 4 6 5 10 1 4 16 12 10 7 17 10 14 15 13 11 10 11 11 9 8 7 7 11 20 31 41 46 50 52 56 58 58 60 62 64
13 6 15 8 12 16 11 12 11 13 7 6 3 10 11 11 14 2 7 11 15 21 20 17 18 20 19 22 23 20 16 10 7 15 23 32 38 42 42 41 42 48 52 55
11 8 2 2 5 11 10 7 10 13 6 7 7 11 21 10 11 18 23 25 29 34 37 44 38 39 50 49 44 37 34 33 28 19 14 12 16 22 26 30 34 39 44 49
15 7 2 3 6 7 8 14 7 6 4 6 7 7 10 7 12 8 17 25 32 42 42 43 37 33 36 33 34 32 29 29 30 27 21 23 26 28 29 34 38 43 48 54
11 9 2 7 11 17 6 6 8 9 9 10 2 10 11 10 16 18 21 30 16 21 31 32 31 28 24 27 23 28 25 27 29 29 26 26 28 34 38 45 46 50 56 60
13 10 8 11 3 1 4 12 12 9 9 5 6 10 9 17 27 35 22 28 24 12 19 30 22 23 25 25 25 24 26 31 32 33 32 33 34 36 42 50 51 58 65 66
15 5 6 7 5 4 8 8 8 9 7 14 11 9 4 12 15 14 17 15 15 11 16 8 15 24 29 32 35 36 37 36 32 30 32 32 34 37 42 49 56 63 69 71
16 7 14 22 9 12 11 11 11 11 7 10 15 10 11 18 9 10 20 24 17 9 9 11 20 28 30 29 28 27 25 26 27 31 36 39 40 42 48 54 60 65 68 71
7 8 6 7 10 9 7 11 15 20 26 15 17 19 13 16 10 13 22 18 10 10 17 21 22 23 24 28 32 35 35 37 41 44 47 53 57 58 58 58 58 61 63 65
3 6 5 3 4 5 4 14 13 6 2 9 5 17 16 39 24 24 22 12 12 9 11 15 20 25 30 35 41 45 47 50 53 56 58 59 61 64 67 69 68 67 67 65
9 9 5 7 9 9 10 24 19 9 11 13 17 10 11 6 1 3 5 3 10 13 16 20 24 28 32 36 41 47 51 54 56 58 58 61 64 67 68 71 72 72 72 75
16 14 6 6 9 10 5 3 16 32 20 20 17 5 13 12 11 15 17 11 9 12 16 21 27 30 32 36 42 47 49 55 59 62 67 71 75 77 77 79 80 77 75 73
5 11 5 9 10 11 8 10 13 15 14 24 24 12 12 9 13 23 12 12 14 16 20 25 33 39 44 48 54 59 61 64 65 69 71 73 77 82 84 85 89 93 87 76
6 5 5 6 9 16 9 2 20 13 8 11 17 21 19 21 7 7 6 15 21 26 31 35 41 47 51 53 57 60 61 64 67 71 75 76 78 82 85 84 84 85 86 83
8 5 13 7 5 14 13 17 12 11 14 24 26 22 16 8 8 10 13 21 26 31 36 41 45 47 49 52 56 58 60 61 64 70 74 77 78 81 81 84 82 78 75 73
17 14 9 6 5 18 20 6 16 8 31 28 19 12 5 1 6 17 23 26 29 36 40 40 45 50 50 53 59 62 63 64 67 70 73 76 80 80 78 77 76 74 70 68
5 11 11 15 13 3 33 4 13 29 34 18 16 10 6 15 25 33 39 40 42 45 47 46 54 60 57 55 59 64 63 65 68 70 72 74 76 76 73 68 65 68 66 63
6 7 5 8 7 11 18 19 30 18 23 17 2 13 22 28 35 46 50 50 54 53 50 56 58 61 65 59 60 65 68 67 68 71 72 73 73 71 65 62 60 58 58 57
9 19 12 7 3 11 13 21 25 8 6 15 22 28 30 36 49 53 59 61 57 53 58 63 65 69 71 68 69 66 67 68 72 73 72 70 66 63 59 59 59 56 50 43
20 12 9 9 21 13 22 40 14 14 16 21 28 37 38 42 53 56 62 59 63 69 68 69 70 77 83 81 81 77 70 72 74 72 73 68 61 57 53 49 42 30 20 15
Wind_Direction_850mb
97 108 186 196 172 135 136 144 157 195 350 196 250 263 278 282 285 278 273 269 267 262 261 251 248 248 244 242 240 240 241 243 241 241 242 244 242 240 241 245 245 247 248 254
52 215 200 125 151 116 126 122 196 16 83 168 343 283 262 272 263 269 274 276 275 281 272 256 247 244 242 242 241 241 241 243 244 243 246 246 247 247 248 251 248 251 248 250
150 224 143 134 140 148 177 163 179 171 46 45 344 297 321 297 277 272 264 278 284 290 286 276 254 245 242 242 243 245 245 243 244 246 244 247 247 250 251 252 254 252 251 249
183 138 145 139 156 135 175 193 134 139 95 235 16 283 308 309 303 291 293 300 300 311 318 311 279 251 243 246 248 247 248 247 247 246 248 251 254 255 262 263 265 263 257 252
225 165 141 132 183 164 182 104 118 90 97 63 321 60 273 330 290 302 337 48 68 65 60 57 62 134 270 244 245 248 250 248 247 247 250 255 259 266 271 271 270 271 266 256
116 80 143 169 91 115 150 82 54 55 82 330 234 162 285 224 212 354 11 31 36 44 57 59 58 65 40 302 280 261 254 252 251 251 253 257 262 268 270 272 273 274 273 268
95 89 353 143 84 41 84 83 11 348 7 221 47 111 251 275 273 237 308 338 17 18 8 351 331 335 336 344 346 328 305 271 259 258 260 263 267 269 272 271 272 271 269 267
150 219 169 195 169 168 183 155 158 198 199 255 92 233 245 204 317 239 33 45 49 47 40 40 43 52 46 44 46 50 45 27 323 275 268 268 271 272 272 272 273 273 273 271
141 234 74 93 133 135 185 178 156 104 24 58 225 289 306 86 56 84 75 65 57 64 69 70 68 73 78 67 62 60 56 50 35 12 346 314 296 293 295 292 284 284 285 283
195 123 31 123 113 41 150 160 81 10 143 255 284 270 226 111 98 90 51 64 85 87 77 69 61 56 59 56 54 49 46 33 22 15 346 324 322 315 309 305 305 306 301 296
142 109 188 123 206 163 136 169 68 123 146 172 203 256 225 140 146 100 52 46 63 77 57 39 36 42 40 34 27 21 17 7 359 345 333 320 305 297 294 300 302 308 304 300
189 126 157 196 308 259 153 175 150 149 211 238 152 265 21 135 116 95 73 58 36 66 27 6 26 14 2 2 359 354 343 336 332 325 316 315 307 297 291 297 295 298 298 295
179 193 84 21 13 358 197 194 141 110 85 202 143 255 336 120 124 80 76 36 27 357 324 6 347 350 345 339 334 334 333 333 329 321 321 318 309 299 292 288 287 287 290 292
137 121 181 206 179 143 184 185 174 156 167 195 218 149 208 233 271 338 24 14 16 61 12 351 337 337 338 338 338 337 338 328 324 326 328 323 317 308 303 300 296 291 289 289
105 131 117 78 113 111 149 167 175 196 218 187 232 197 219 224 275 321 356 19 78 20 346 342 337 332 330 329 330 330 332 333 331 330 330 326 323 320 318 312 307 304 300 294
21 110 96 89 96 63 193 202 194 207 190 281 180 261 217 264 290 330 354 75 73 48 3 346 338 334 332 331 327 326 324 323 323 323 323 321 319 319 322 321 318 314 310 307
104 123 117 185 137 83 285 225 204 179 186 155 226 217 164 167 227 164 169 88 47 24 10 359 355 349 342 334 326 320 321 322 322 324 324 324 321 320 319 318 318 316 310 306
148 135 138 137 129 208 232 350 220 218 226 212 262 183 148 161 156 138 121 99 44 11 0 356 346 339 335 330 323 320 321 320 320 321 320 320 319 319 320 319 318 316 313 308
149 136 135 160 197 318 290 190 155 167 249 217 236 131 150 170 165 167 101 40 14 352 339 330 330 327 323 321 317 315 315 313 313 312 311 310 310 310 311 312 312 314 313 311
71 87 126 146 179 198 237 347 146 99 276 175 161 148 145 148 156 243 187 336 330 326 323 317 314 314 314 314 311 312 314 314 313 308 305 304 302 299 299 299 300 304 307 307
143 142 203 182 192 278 216 198 147 103 240 152 149 148 148 157 168 149 300 307 312 319 318 313 312 313 314 312 308 310 312 315 314 315 314 311 306 303 301 298 298 297 299 299
177 165 190 133 118 258 168 134 174 183 138 134 139 138 147 213 268 304 315 314 317 317 315 315 315 318 320 318 314 313 313 311 309 309 311 311 308 304 301 300 300 300 300 298
208 180 179 179 204 159 185 201 156 155 145 146 148 121 353 313 309 313 315 313 310 312 311 306 307 309 311 312 312 312 313 309 307 307 307 305 303 302 300 298 298 298 298 296
267 170 162 86 266 176 161 154 137 121 118 124 329 319 314 308 305 303 303 302 305 306 302 305 309 311 311 311 308 311 313 312 308 306 304 304 303 302 300 297 298 295 292 288
188 146 164 260 319 132 172 155 144 138 273 299 296 307 304 301 297 299 299 299 300 297 301 304 307 309 308 308 307 311 311 310 310 305 303 303 303 300 298 298 298 294 288 280
181 170 172 216 168 144 174 165 230 266 262 283 286 291 291 290 291 293 292 295 298 298 297 297 300 303 303 302 302 305 307 306 307 306 302 301 301 297 295 293 289 279 272 261